Tracking 19212 objects as of 17-Jul-2018
HD Live streaming from Space Station
objects crossing your sky now

COSMOS 1455

Track COSMOS 1455 now!
10-day predictions
COSMOS 1455 is classified as:


NORAD ID: 14032
Int'l Code: 1983-037A
Perigee: 508.4 km
Apogee: 531.9 km
Inclination: 82.5 °
Period: 94.9 minutes
Semi major axis: 6891 km
RCS: 6.2678 m2 (large)
Launch date: April 23, 1983
Source: Commonwealth of Independent States (former USSR) (CIS)
Launch site: PLESETSK MISSILE AND SPACE COMPLEX (PKMTR)
aabbcc
Your satellite tracking list
Your tracking list is empty




NASA's NSSDC Master Catalog

Two Line Element Set (TLE):
1 14032U 83037A   18198.17655068  .00000379  00000-0  17168-4 0  9992
2 14032  82.5152  57.0789 0017028 352.5985   7.4994 15.17617593921275
Source of the keplerian elements: AFSPC